Location: Biltmore Gardens
(41.6070°N, 83.4666°W)
Time: 15:11:35
(UTC+00:00)

Cosmos 2034 Rocket - Pass Details

Date: 14 July 2020
Orbit: 959 x 1000 km, 82.9° (Epoch: 13 August)

Event Time Altitude Azimuth Distance (km) Brightness Sun altitude
Exits shadow 09:08:08 - 188° (S) 3,238 6.3 -10.6°
Reaches altitude 10° 09:09:36 10° 188° (S) 2,683 5.9 -10.3°
Maximum altitude 09:15:44 84° 276° (W) 970 4.0 -9.5°
Drops below altitude 10° 09:21:57 10° 6° (N) 2,708 7.0 -8.6°
Sets 09:24:28 0° 7° (N) 3,662 7.8 -8.2°
